Location: Białystok
(53.1343°N, 23.1544°E)
Time: 04:56:35
(UTC+01:00)

ISS - Pass Details

Date: 25 January 2019
Orbit: 403 x 411 km, 51.6° (Epoch: 21 February)

Event Time Altitude Azimuth Distance (km) Brightness Sun altitude
Rises 18:27:43 0° 233° (SW) 2,331 0.9 -22.2°
Reaches altitude 10° 18:29:53 10° 225° (SW) 1,474 -0.4 -22.5°
Enters shadow 18:31:39 25° 203° (SSW) 871 -2.0 -22.8°
